Location: Cadenet
(43.7345°N, 5.3750°E)
Time: 22:46:52
(UTC+00:00)

Cosmos 1140 Rocket - Pass Details

Date: 18 February 2020
Orbit: 745 x 767 km, 74.1° (Epoch: 05 April)

Event Time Altitude Azimuth Distance (km) Brightness Sun altitude
Rises 05:52:14 0° 219° (SW) 3,218 6.4 -8.2°
Reaches altitude 10° 05:54:43 10° 226° (SW) 2,298 5.6 -7.7°
Maximum altitude 05:59:39 42° 297° (WNW) 1,089 3.9 -6.9°
Drops below altitude 10° 06:04:38 10° 8° (N) 2,315 6.0 -6.0°
Sets 06:07:09 0° 15° (NNE) 3,244 6.8 -5.5°
